This demonstration page uses our WeatherBlox Daily Observations layout. Learn more.

Hourly Observations for October 19, 2019

Temp ( °F °C ) Dew Point ( °F °C ) Humidity (%) Winds ( mph kmh ) Pressure ( in mb ) Visibility ( mi km ) Precip ( " mm )
12:53 am 00:53 Clear 34 1.1 31 -0.6 89 89 NW 5 7 29.83 1010 10 16.09344 0 0
1:53 am 01:53 Clear 32 0 30 -1.1 92 92 N 3 6 29.85 1011 10 16.09344 0 0
2:53 am 02:53 Clear 34 1.1 27 -2.8 76 76 NW 8 13 29.85 1011 10 16.09344 0 0
3:53 am 03:53 Clear 31 -0.6 25 -3.9 79 79 N 7 11 29.85 1011 10 16.09344 0 0
4:53 am 04:53 Clear 30 -1.1 24 -4.4 79 79 Calm 29.85 1011 10 16.09344 0 0
5:53 am 05:53 Clear 31 -0.6 23 -5 72 72 NNW 8 13 29.85 1011 10 16.09344 0 0
6:53 am 06:53 Clear 32 0 24 -4.4 73 73 NNW 6 9 29.88 1012 10 16.09344 0 0
7:53 am 07:53 Sunny 33 0.6 25 -3.9 72 72 NW 5 7 29.91 1013 10 16.09344 0 0
8:53 am 08:53 Sunny 40 4.4 29 -1.7 65 65 WSW 3 6 29.91 1013 10 16.09344 0 0
9:53 am 09:53 Sunny 49 9.4 29 -1.7 46 46 VRB 3 6 29.88 1012 10 16.09344 0 0
10:53 am 10:53 Sunny 54 12.2 27 -2.8 35 35 W 12 19 29.85 1011 10 16.09344 0 0
11:53 am 11:53 Sunny 59 15 27 -2.8 29 29 VRB 6 9 29.8 1009 10 16.09344 0 0
12:53 pm 12:53 Sunny 62 16.7 27 -2.8 26 26 W 9 15 29.74 1007 10 16.09344 0 0
1:53 pm 13:53 Cloudy 60 15.6 25 -3.9 26 26 W 7 11 29.71 1006 10 16.09344 0 0
2:53 pm 14:53 Partly Cloudy 64 17.8 21 -6.1 19 19 W 17 28 29.68 1005 10 16.09344 0 0
3:53 pm 15:53 Mostly Cloudy 62 16.7 21 -6.1 21 21 WNW 18 30 29.68 1005 10 16.09344 0 0
4:53 pm 16:53 Sunny 61 16.1 20 -6.7 20 20 WNW 14 22 29.68 1005 10 16.09344 0 0
5:53 pm 17:53 Sunny 57 13.9 23 -5 27 27 NW 6 9 29.68 1005 10 16.09344 0 0
6:53 pm 18:53 Mostly Cloudy 56 13.3 22 -5.6 27 27 N 5 7 29.65 1004 10 16.09344 0 0
7:53 pm 19:53 Cloudy 57 13.9 25 -3.9 29 29 SSE 12 19 29.65 1004 10 16.09344 0 0
8:53 pm 20:53 Cloudy 58 14.4 26 -3.3 29 29 SW 16 26 29.65 1004 10 16.09344 0 0
9:53 pm 21:53 Cloudy 56 13.3 28 -2.2 34 34 W 7 11 29.59 1002 10 16.09344 0.001 0.001
10:53 pm 22:53 Cloudy 52 11.1 30 -1.1 43 43 ENE 7 11 29.53 1000 10 16.09344 0 0
11:53 pm 23:53 Cloudy 52 11.1 25 -3.9 35 35 E 12 19 29.5 999 10 16.09344 0 0

Powered by AerisWeather